[[{"header":{"parameterUnit":"m.s-1","parameterCategory":1,"la1":30.2991,"la2":30.254,"lo1":-89.0895,"lo2":-89.0444,"dy":0.0017,"dx":0.0017,"nx":28,"ny":28,"refTime":"2024-02-05T09:00:00:Z","depth":0,"parameterNumber":2,"parameterNumberName":"U-component_of_WINDS"},"data":[0,0,0,0,0,0,0,0,0,0,0,0,0,0,0,0,0,0,0,0,0,0,0,0,0,0,0,0,0,0,0,0,0,0,0,0,0,0,0,0,0,0,0,0,0,0,0,0,0,0,0,0,0,0,0,0,0,0,1.6841,1.6841,0,1.6829,1.6829,1.6829,1.6779,1.6778,1.6777,1.6776,1.6764,1.6765,1.6766,0,0,0,0,0,0,0,0,0,0,0,0,0,1.6822,1.6823,1.6841,1.6841,1.6841,1.6829,1.6829,1.6829,1.678,1.6778,1.6777,1.6775,1.6764,1.6765,1.6766,0,0,0,0,0,0,0,0,0,0,0,0,0,1.6823,1.6823,1.6841,1.6815,1.6812,1.6829,1.6829,1.6829,1.678,1.6778,1.6776,1.6775,1.6764,1.6765,1.6766,1.6808,0,0,1.677,1.677,0,0,0,0,0,0,0,0,1.6823,1.6823,1.6819,1.6817,1.6814,1.6804,1.6818,1.6822,1.678,1.6792,1.6776,1.6774,1.6779,1.6779,1.678,1.6807,1.6807,1.677,1.677,1.6771,1.6771,0,0,0,0,0,0,0,1.6823,1.6824,1.6836,1.6819,1.6816,1.6804,1.6802,1.6819,1.6795,1.6791,1.6787,1.6787,1.6777,1.6779,1.678,1.6807,1.677,1.6771,1.6771,1.6772,1.6868,1.687,0,0,0,0,0,0,1.6826,1.6824,1.6837,1.6836,1.6814,1.6806,1.6804,1.6809,1.6795,1.6791,1.6788,1.6784,1.6778,1.6778,1.6779,1.6828,1.6771,1.6772,1.6773,1.6866,1.6868,1.6871,0,0,0,0,0,0,1.6826,1.6828,1.6837,1.6829,1.6829,1.6808,1.6814,1.6809,1.6811,1.6793,1.6789,1.6794,1.6777,1.6778,1.6801,1.6827,1.6773,1.6774,1.6864,1.6867,1.687,1.6925,0,0,0,0,0,0,1.6826,1.6828,1.6843,1.683,1.683,1.6859,1.6816,1.6811,1.6813,1.6808,1.6798,1.6794,1.6776,1.68,1.6802,1.6827,1.6775,1.6862,1.6865,1.6869,1.6921,1.6929,1.6936,0,0,0,0,0,1.6825,1.6859,1.6844,1.6846,1.6848,1.6861,1.6861,1.6839,1.6816,1.6831,1.6819,1.6795,1.6823,1.6803,1.6805,1.6831,1.686,1.6864,1.6868,1.6917,1.6927,1.6936,0,0,0,0,0,0,1.6876,1.6857,1.684,1.687,1.6868,1.6852,1.6871,1.685,1.6854,1.6849,1.6821,1.6819,1.6847,1.6841,1.6818,1.6871,1.6838,1.6842,1.6874,1.6883,1.6891,1.6892,1.6775,0,0,0,0,0,1.6891,1.6902,1.6885,1.6913,1.6913,1.6892,1.6897,1.688,1.6876,1.6875,1.6864,1.6862,1.687,1.6876,1.6883,1.6919,1.6917,1.6938,1.6946,1.6953,1.6957,1.6977,1.6987,1.6884,1.6884,1.6884,0,0,1.6922,1.6912,1.6921,1.6924,1.6919,1.6932,1.6892,1.6907,1.6916,1.6877,1.6899,1.6892,1.6887,1.6917,1.693,1.6913,1.6985,1.6958,1.6964,1.6965,1.6983,1.6992,1.7001,1.6887,1.6887,1.6886,0,0,1.6984,1.6978,1.7002,1.6999,1.6993,1.6979,1.6985,1.6973,1.6967,1.6988,1.6959,1.697,1.6985,1.6983,1.6984,1.7048,1.7025,1.7051,1.7092,1.7112,1.712,1.7127,1.715,1.7159,1.7055,1.7055,1.7055,0,1.7023,1.7041,1.7017,1.7034,1.7036,1.7001,1.7026,1.7024,1.7021,1.7023,1.7004,1.7023,1.7017,1.7047,1.7063,1.7064,1.7071,1.7052,1.712,1.7127,1.7133,1.7155,1.7164,1.7059,1.7058,1.7058,1.7058,0,1.709,1.7103,1.7122,1.7121,1.7125,1.7146,1.7125,1.7133,1.7116,1.7104,1.7127,1.7119,1.7124,1.713,1.7114,1.7158,1.7148,1.7125,1.7091,1.7147,1.7167,1.7175,1.7063,1.7062,1.7061,1.706,0,0,1.7183,1.7168,1.7176,1.7175,1.7167,1.7177,1.7196,1.7201,1.7209,1.7208,1.7224,1.7238,1.7217,1.7219,1.7202,1.7219,1.7271,1.7194,1.7193,1.7209,1.732,1.7338,1.7348,1.7256,1.7257,1.7258,1.7321,0,1.7244,1.7276,1.7255,1.7291,1.7303,1.7271,1.7288,1.7285,1.7275,1.7285,1.7274,1.7285,1.7256,1.7256,1.7272,1.7261,1.7293,1.7256,1.7271,1.7272,1.7274,1.7358,1.7377,1.7436,1.7329,1.733,1.7331,0,1.7318,1.7321,1.7358,1.7348,1.7353,1.7368,1.7372,1.7381,1.7377,1.7369,1.7371,1.735,1.737,1.7336,1.7363,1.7339,1.7343,1.7339,1.7341,1.7342,1.7305,1.7362,1.7454,1.7464,1.7343,1.7342,1.7341,0,1.7384,1.7397,1.7421,1.7421,1.741,1.7422,1.7418,1.7413,1.7418,1.7421,1.7424,1.7429,1.7432,1.7437,1.7419,1.7396,1.7448,1.7413,1.7442,1.7443,1.7455,1.7454,1.755,1.7457,1.7457,1.7457,1.7457,0,1.7453,1.7477,1.745,1.7465,1.7492,1.7468,1.7495,1.7488,1.7484,1.7497,1.7469,1.7483,1.7457,1.7468,1.7454,1.7479,1.748,1.7474,1.747,1.7477,1.7478,1.748,1.7476,1.7459,1.7459,1.7458,1.7458,0,1.7531,1.7514,1.7538,1.7526,1.7524,1.7544,1.7534,1.7547,1.7536,1.7553,1.7556,1.7538,1.755,1.7532,1.7541,1.7532,1.7566,1.7555,1.7567,1.7564,1.7595,1.7593,1.7696,1.7708,1.7608,1.7609,1.7609,0,1.7577,1.7595,1.7585,1.7592,1.7589,1.7601,1.7606,1.7583,1.7589,1.7588,1.7602,1.7611,1.7617,1.7637,1.7625,1.7633,1.7623,1.7658,1.7623,1.763,1.7624,1.7623,1.7625,1.7665,1.7667,1.7668,1.7668,0,1.766,1.7651,1.7658,1.7664,1.7671,1.7674,1.7675,1.7682,1.7659,1.7667,1.7679,1.7684,1.7694,1.7704,1.7708,1.7704,1.7683,1.7679,1.7687,1.7694,1.77,1.7698,1.7587,1.7677,1.7676,1.7676,1.7675,1.7675,1.7723,1.7738,1.7734,1.7744,1.7742,1.7744,1.7757,1.7747,1.7757,1.7763,1.7749,1.7765,1.7761,1.7765,1.7764,1.7776,1.7761,1.7771,1.7774,1.7777,1.7782,1.7698,1.7777,1.7777,1.7776,1.7776,1.7776,0,1.7806,1.7801,1.7811,1.7814,1.7822,1.7801,1.7801,1.781,1.7824,1.7822,1.7829,1.7843,1.7853,1.7842,1.785,1.7862,1.7852,1.7865,1.7864,1.7864,1.7795,1.7788,1.7872,1.7872,1.7872,1.7872,1.7872,1.7872,1.7849,1.7874,1.7864,1.7888,1.7884,1.7899,1.7901,1.7903,1.7902,1.7919,1.7927,1.792,1.7915,1.7923,1.7931,1.7927,1.7932,1.7948,1.7941,1.7878,1.7868,1.7859,1.7853,1.7949,1.7949,1.8009,1.8009,1.801]},{"header":{"parameterUnit":"m.s-1","parameterCategory":1,"la1":30.2991,"la2":30.254,"lo1":-89.0895,"lo2":-89.0444,"dy":0.0017,"dx":0.0017,"nx":28,"ny":28,"refTime":"2024-02-05T09:00:00:Z","depth":0,"parameterNumber":3,"parameterNumberName":"V-component_of_WINDS"},"data":[0,0,0,0,0,0,0,0,0,0,0,0,0,0,0,0,0,0,0,0,0,0,0,0,0,0,0,0,0,0,0,0,0,0,0,0,0,0,0,0,0,0,0,0,0,0,0,0,0,0,0,0,0,0,0,0,0,0,-3.789,-3.7892,0,-3.8085,-3.8087,-3.809,-3.8115,-3.8113,-3.8112,-3.811,-3.8314,-3.8321,-3.8328,0,0,0,0,0,0,0,0,0,0,0,0,0,-3.7545,-3.7551,-3.789,-3.7892,-3.7895,-3.8085,-3.8087,-3.809,-3.8116,-3.8113,-3.8111,-3.8109,-3.8312,-3.832,-3.8329,0,0,0,0,0,0,0,0,0,0,0,0,0,-3.7713,-3.7553,-3.7889,-3.793,-3.7936,-3.8084,-3.8088,-3.8091,-3.8116,-3.8113,-3.8111,-3.8108,-3.8309,-3.832,-3.833,-3.8453,0,0,-3.8363,-3.8368,0,0,0,0,0,0,0,0,-3.7704,-3.7726,-3.7922,-3.7928,-3.7934,-3.8073,-3.8041,-3.8212,-3.8117,-3.8048,-3.811,-3.8107,-3.8237,-3.8253,-3.8296,-3.8462,-3.8471,-3.8364,-3.8371,-3.8375,-3.8378,0,0,0,0,0,0,0,-3.7692,-3.7718,-3.7967,-3.7925,-3.7932,-3.7941,-3.7962,-3.8074,-3.8156,-3.8054,-3.8056,-3.8078,-3.8239,-3.8286,-3.8301,-3.8474,-3.8364,-3.8373,-3.838,-3.8384,-3.8755,-3.8758,0,0,0,0,0,0,-3.7672,-3.7708,-3.7961,-3.7973,-3.7809,-3.7949,-3.7972,-3.8031,-3.8154,-3.817,-3.8081,-3.8079,-3.8269,-3.8288,-3.8308,-3.8463,-3.8375,-3.8385,-3.8391,-3.8751,-3.8755,-3.8759,0,0,0,0,0,0,-3.7665,-3.7694,-3.7953,-3.7841,-3.7875,-3.7958,-3.8024,-3.8037,-3.8083,-3.8175,-3.819,-3.8112,-3.8267,-3.8293,-3.8417,-3.847,-3.839,-3.84,-3.8747,-3.8753,-3.8757,-3.8771,0,0,0,0,0,0,-3.7654,-3.7691,-3.7737,-3.7842,-3.788,-3.8057,-3.8027,-3.8042,-3.8101,-3.81,-3.8209,-3.8224,-3.8267,-3.8401,-3.8428,-3.8484,-3.8408,-3.8743,-3.875,-3.8756,-3.8766,-3.8776,-3.8784,0,0,0,0,0,-3.7642,-3.7734,-3.774,-3.777,-3.7939,-3.806,-3.8082,-3.8129,-3.8105,-3.8153,-3.8213,-3.8221,-3.8459,-3.8413,-3.8444,-3.8504,-3.874,-3.8748,-3.8755,-3.8762,-3.8774,-3.8784,0,0,0,0,0,0,-3.7635,-3.7748,-3.7756,-3.7884,-3.7962,-3.8064,-3.8126,-3.8139,-3.8227,-3.8223,-3.8278,-3.8302,-3.8425,-3.8476,-3.8423,-3.8631,-3.8598,-3.8612,-3.8593,-3.8605,-3.8613,-3.86,-3.8417,0,0,0,0,0,-3.7648,-3.7734,-3.7829,-3.7933,-3.7972,-3.8042,-3.8096,-3.8125,-3.8209,-3.8243,-3.8311,-3.8394,-3.8488,-3.8549,-3.864,-3.8773,-3.8799,-3.8829,-3.8838,-3.8845,-3.8858,-3.8935,-3.8951,-3.8784,-3.8784,-3.8784,0,0,-3.7676,-3.7749,-3.78,-3.7934,-3.7998,-3.8089,-3.807,-3.8166,-3.8235,-3.8258,-3.838,-3.8433,-3.8529,-3.8659,-3.8719,-3.8706,-3.8909,-3.8855,-3.886,-3.8869,-3.8945,-3.896,-3.8974,-3.8789,-3.8788,-3.8788,0,0,-3.7775,-3.7837,-3.7932,-3.7996,-3.8093,-3.8139,-3.8162,-3.8263,-3.8299,-3.8421,-3.8441,-3.8525,-3.8684,-3.8753,-3.8809,-3.8935,-3.8947,-3.8963,-3.9011,-3.9085,-3.9099,-3.9111,-3.9159,-3.9175,-3.8974,-3.8974,-3.8974,0,-3.7799,-3.7934,-3.7979,-3.8076,-3.8135,-3.8158,-3.8257,-3.8317,-3.844,-3.8481,-3.8463,-3.8666,-3.8732,-3.888,-3.8911,-3.8954,-3.8984,-3.8952,-3.9093,-3.9105,-3.9117,-3.9164,-3.9181,-3.8976,-3.8976,-3.8975,-3.8975,0,-3.796,-3.8055,-3.812,-3.8236,-3.8303,-3.84,-3.8461,-3.8524,-3.8547,-3.8596,-3.8722,-3.8802,-3.8911,-3.8948,-3.8971,-3.91,-3.9089,-3.9081,-3.905,-3.9134,-3.9179,-3.9197,-3.8978,-3.8977,-3.8977,-3.8977,0,0,-3.8061,-3.8201,-3.8225,-3.828,-3.8388,-3.8463,-3.8562,-3.8668,-3.8722,-3.8805,-3.8892,-3.9027,-3.9021,-3.9084,-3.9116,-3.9181,-3.928,-3.9166,-3.9169,-3.9187,-3.943,-3.9437,-3.9457,-3.9287,-3.929,-3.9293,-3.9423,0,-3.8175,-3.835,-3.8394,-3.8544,-3.8634,-3.8658,-3.8744,-3.8822,-3.8871,-3.8955,-3.9009,-3.9105,-3.9088,-3.9127,-3.9193,-3.9254,-3.933,-3.9245,-3.9371,-3.9375,-3.9349,-3.948,-3.9488,-3.9606,-3.9441,-3.9444,-3.9446,0,-3.8331,-3.8418,-3.8577,-3.8676,-3.8715,-3.8792,-3.8894,-3.8973,-3.9063,-3.9094,-3.9165,-3.919,-3.9297,-3.9258,-3.9407,-3.9348,-3.9402,-3.944,-3.9446,-3.9462,-3.9417,-3.9503,-3.9645,-3.9664,-3.9473,-3.9471,-3.9469,0,-3.8393,-3.8549,-3.8665,-3.871,-3.8828,-3.8882,-3.8934,-3.902,-3.9082,-3.9171,-3.9213,-3.9313,-3.9369,-3.9447,-3.9501,-3.9467,-3.9647,-3.9611,-3.9678,-3.9677,-3.9717,-3.9714,-3.9873,-3.9746,-3.9746,-3.9746,-3.9745,0,-3.8517,-3.8614,-3.8694,-3.8766,-3.8877,-3.8927,-3.9036,-3.9089,-3.9166,-3.925,-3.9276,-3.9356,-3.9419,-3.9508,-3.955,-3.9669,-3.9693,-3.9723,-3.9734,-3.9723,-3.9719,-3.9761,-3.9755,-3.9751,-3.975,-3.9749,-3.9748,0,-3.8605,-3.8662,-3.8791,-3.8892,-3.892,-3.8997,-3.9085,-3.9157,-3.9206,-3.9313,-3.9341,-3.9419,-3.9524,-3.9584,-3.9717,-3.9746,-3.9879,-3.9884,-3.9849,-3.9854,-3.9919,-3.9913,-4.0113,-4.0143,-3.9993,-3.9994,-3.9995,0,-3.8682,-3.8757,-3.8866,-3.8924,-3.8977,-3.9069,-3.9132,-3.9185,-3.925,-3.9358,-3.9418,-3.9525,-3.9614,-3.9782,-3.9851,-3.9954,-3.9964,-4.0026,-3.9979,-3.9967,-3.9969,-3.9965,-3.9974,-4.0035,-4.0037,-4.0038,-4.0039,0,-3.8814,-3.8838,-3.8927,-3.9027,-3.9101,-3.9182,-3.9263,-3.9309,-3.9376,-3.9448,-3.9556,-3.9624,-3.976,-3.9867,-3.9976,-4.0031,-4.0048,-4.0053,-4.0074,-4.0065,-4.0043,-4.0059,-3.9874,-4.0049,-4.0048,-4.0047,-4.0046,-4.0046,-3.8901,-3.897,-3.9058,-3.9157,-3.9223,-3.9299,-3.9372,-3.943,-3.952,-3.9635,-3.966,-3.9775,-3.9865,-4.0012,-4.007,-4.0162,-4.0151,-4.0181,-4.019,-4.0197,-4.0201,-4.0026,-4.0182,-4.0181,-4.0181,-4.0181,-4.0181,0,-3.9037,-3.9095,-3.9185,-3.9297,-3.9376,-3.9381,-3.9472,-3.9538,-3.9638,-3.9719,-3.9806,-3.9931,-4.0036,-4.0113,-4.022,-4.0279,-4.029,-4.0306,-4.0304,-4.0317,-4.0203,-4.0175,-4.0296,-4.0296,-4.0296,-4.0296,-4.0296,-4.0296,-3.9117,-3.9235,-3.9271,-3.9423,-3.9481,-3.9593,-3.9644,-3.9715,-3.978,-3.9919,-4.0005,-4.0055,-4.0136,-4.0249,-4.0346,-4.0366,-4.0406,-4.0422,-4.0444,-4.0337,-4.0325,-4.0313,-4.0287,-4.0429,-4.043,-4.0551,-4.0552,-4.0553]}]]